Daikoku — JD3247 — position and weather

sailwx.info

Track history (hours):
 
Tides and Currents Weather Stations Pressure Air Temp Water Temp Dewpoint Dewpoint Depression Visibility Wind Speed Wind Dir Waves Ship Positions

Daikoku

Last reported at 2014-Aug-31 20:31 UTC. Time now 2014-Sep-01 07:41 UTC.
Position N 34°37' E 134°56'.

Length 95 m; draft 3.3 m.

Type: Cargo ship. MMSI: 431003009.

Date/timePositionNaut miles runAvg speedWind from/ knotsBaromVisibWave heightAir tempDewpointWater temp
2014-Aug-31 20:31N 34°37' E 134°56'8 8.7
2014-Aug-31 19:33N 34°34' E 135°05'1211.7
2014-Aug-31 18:32N 34°22' E 135°01'1111.5
2014-Aug-31 17:33N 34°11' E 134°59'1212.2
2014-Aug-31 16:33N 33°59' E 135°01'  
2014-Aug-29 12:07N 34°50' E 139°12'1012.8
2014-Aug-29 11:20N 34°55' E 139°22'911.9
2014-Aug-29 10:32N 35°01' E 139°32'1212.6
2014-Aug-29 09:33N 35°08' E 139°44'1111.4
2014-Aug-29 08:33N 35°20' E 139°42'1111.1
2014-Aug-29 07:33N 35°29' E 139°50'8 7.8
2014-Aug-29 06:31N 35°36' E 139°46'0 0.0
2014-Aug-29 05:25N 35°36' E 139°46'0 0.0
2014-Aug-29 04:25N 35°36' E 139°46'3 3.4
2014-Aug-29 03:33N 35°34' E 139°48'4 4.1
2014-Aug-29 02:33N 35°33' E 139°53'7 7.1
2014-Aug-29 01:33N 35°29' E 139°45'5 5.4
2014-Aug-29 00:33N 35°24' E 139°46'1010.2
2014-Aug-28 23:33N 35°14' E 139°47'1111.1
2014-Aug-28 22:33N 35°03' E 139°42'1312.9
2014-Aug-28 21:33N 34°56' E 139°29'4711.8
2014-Aug-28 17:33N 34°34' E 138°38'54 1.6
2014-Aug-27 07:33N 35°03' E 139°34'1312.9
2014-Aug-27 06:33N 35°11' E 139°46'1211.9
2014-Aug-27 05:33N 35°23' E 139°42'7 6.9
2014-Aug-27 04:33N 35°29' E 139°45'3 3.0
2014-Aug-27 03:31N 35°28' E 139°42'0 0.0
2014-Aug-27 02:31N 35°28' E 139°42'0 0.0
2014-Aug-27 01:31N 35°28' E 139°42'0 0.0
2014-Aug-27 00:31N 35°28' E 139°42'0 0.0
2014-Aug-26 23:31N 35°28' E 139°42'4 4.6
2014-Aug-26 22:33N 35°24' E 139°44'0 0.0
2014-Aug-26 21:33N 35°24' E 139°44'0 0.0
2014-Aug-26 20:33N 35°24' E 139°44'0 0.0
2014-Aug-26 19:33N 35°24' E 139°44'0 0.0
2014-Aug-26 18:33N 35°24' E 139°44'0 0.0
2014-Aug-26 17:33N 35°24' E 139°44'0 0.0
2014-Aug-26 16:33N 35°24' E 139°44'0 0.0
2014-Aug-26 15:33N 35°24' E 139°44'0 0.0
2014-Aug-26 14:33N 35°24' E 139°44'0 0.0
2014-Aug-26 13:33N 35°24' E 139°44'0 0.0
2014-Aug-26 12:30N 35°24' E 139°44'0 0.0
2014-Aug-26 11:33N 35°24' E 139°44'0 0.0
2014-Aug-26 10:33N 35°24' E 139°44'0 0.0
2014-Aug-26 09:33N 35°24' E 139°44'0 0.0
2014-Aug-26 08:30N 35°24' E 139°44'2 1.8
2014-Aug-26 07:33N 35°25' E 139°43'2 2.2
2014-Aug-26 06:33N 35°26' E 139°41'0 0.3
2014-Aug-26 05:31N 35°26' E 139°41'0 0.0
2014-Aug-26 04:31N 35°26' E 139°41'0 0.0
2014-Aug-26 03:31N 35°26' E 139°41'2 2.5
2014-Aug-26 02:33N 35°24' E 139°41'0 0.1
2014-Aug-26 01:32N 35°24' E 139°41'2 2.1
2014-Aug-26 00:33N 35°22' E 139°42'1010.3
2014-Aug-25 23:33N 35°13' E 139°47'1110.8
2014-Aug-25 22:33N 35°03' E 139°41'1512.8
2014-Aug-25 21:21N 34°54' E 139°26'14 0.5
2014-Aug-24 16:12N 34°48' E 139°11'1911.4
2014-Aug-24 14:33N 34°59' E 139°30'1212.0
2014-Aug-24 13:33N 35°06' E 139°42'1211.5
2014-Aug-24 12:33N 35°17' E 139°45'8 7.6
2014-Aug-24 11:31N 35°24' E 139°41'0 0.0
2014-Aug-24 10:31N 35°24' E 139°41'8 8.6
2014-Aug-24 09:33N 35°17' E 139°46'1212.2
2014-Aug-24 08:33N 35°05' E 139°44'1312.7
2014-Aug-24 07:33N 34°57' E 139°32'1713.9
2014-Aug-24 06:22N 34°47' E 139°16'1212.5
2014-Aug-24 05:26N 34°40' E 139°04'201 7.7
2014-Aug-23 03:20N 34°22' E 135°01'911.9
2014-Aug-23 02:33N 34°28' E 135°09'1211.6
2014-Aug-23 01:33N 34°38' E 135°17'3 3.1
2014-Aug-23 00:29N 34°41' E 135°17'3 2.9
2014-Aug-22 23:33N 34°40' E 135°14'0 0.1
2014-Aug-22 22:30N 34°40' E 135°14'0 0.0
2014-Aug-22 21:24N 34°40' E 135°14'0 0.0
2014-Aug-22 20:30N 34°40' E 135°14'0 0.0
2014-Aug-22 19:30N 34°40' E 135°14'0 0.0
2014-Aug-22 18:30N 34°40' E 135°14'0 0.0
2014-Aug-22 17:30N 34°40' E 135°14'0 0.0
2014-Aug-22 16:30N 34°40' E 135°14'0 0.0
2014-Aug-22 15:30N 34°40' E 135°14'0 0.0
2014-Aug-22 14:30N 34°40' E 135°14'0 0.0
2014-Aug-22 13:30N 34°40' E 135°14'0 0.0
2014-Aug-22 12:30N 34°40' E 135°14'0 0.0
2014-Aug-22 11:30N 34°40' E 135°14'0 0.0
2014-Aug-22 10:30N 34°40' E 135°14'0 0.0
2014-Aug-22 09:24N 34°40' E 135°14'0 0.0
2014-Aug-22 08:30N 34°40' E 135°14'0 0.0
2014-Aug-22 07:30N 34°40' E 135°14'4 3.8
2014-Aug-22 06:34N 34°41' E 135°18'3 3.3
2014-Aug-22 05:33N 34°40' E 135°14'0 0.3
2014-Aug-22 04:30N 34°40' E 135°14'4 3.7
2014-Aug-22 03:33N 34°41' E 135°18'0 0.2
2014-Aug-22 01:22N 34°41' E 135°17'0 0.0
2014-Aug-22 00:16N 34°41' E 135°17'0 0.0
2014-Aug-21 23:32N 34°41' E 135°17'3 2.5
2014-Aug-21 22:28N 34°39' E 135°19'0 0.0
2014-Aug-21 21:28N 34°39' E 135°19'  
Track history (hours):
 
Tides and Currents Weather Stations Pressure Air Temp Water Temp Dewpoint Dewpoint Depression Visibility Wind Speed Wind Dir Waves Ship Positions

Daikoku

Last reported at 2014-Aug-31 20:31 UTC. Time now 2014-Sep-01 07:41 UTC.
Position N 34°37' E 134°56'.

Length 95 m; draft 3.3 m.

Type: Cargo ship. MMSI: 431003009.

Date/timePositionNaut miles runAvg speedWind from/ knotsBaromVisibWave heightAir tempDewpointWater temp
2014-Aug-31 20:31N 34°37' E 134°56'8 8.7
2014-Aug-31 19:33N 34°34' E 135°05'1211.7
2014-Aug-31 18:32N 34°22' E 135°01'1111.5
2014-Aug-31 17:33N 34°11' E 134°59'1212.2
2014-Aug-31 16:33N 33°59' E 135°01'  
2014-Aug-29 12:07N 34°50' E 139°12'1012.8
2014-Aug-29 11:20N 34°55' E 139°22'911.9
2014-Aug-29 10:32N 35°01' E 139°32'1212.6
2014-Aug-29 09:33N 35°08' E 139°44'1111.4
2014-Aug-29 08:33N 35°20' E 139°42'1111.1
2014-Aug-29 07:33N 35°29' E 139°50'8 7.8
2014-Aug-29 06:31N 35°36' E 139°46'0 0.0
2014-Aug-29 05:25N 35°36' E 139°46'0 0.0
2014-Aug-29 04:25N 35°36' E 139°46'3 3.4
2014-Aug-29 03:33N 35°34' E 139°48'4 4.1
2014-Aug-29 02:33N 35°33' E 139°53'7 7.1
2014-Aug-29 01:33N 35°29' E 139°45'5 5.4
2014-Aug-29 00:33N 35°24' E 139°46'1010.2
2014-Aug-28 23:33N 35°14' E 139°47'1111.1
2014-Aug-28 22:33N 35°03' E 139°42'1312.9
2014-Aug-28 21:33N 34°56' E 139°29'4711.8
2014-Aug-28 17:33N 34°34' E 138°38'54 1.6
2014-Aug-27 07:33N 35°03' E 139°34'1312.9
2014-Aug-27 06:33N 35°11' E 139°46'1211.9
2014-Aug-27 05:33N 35°23' E 139°42'7 6.9
2014-Aug-27 04:33N 35°29' E 139°45'3 3.0
2014-Aug-27 03:31N 35°28' E 139°42'0 0.0
2014-Aug-27 02:31N 35°28' E 139°42'0 0.0
2014-Aug-27 01:31N 35°28' E 139°42'0 0.0
2014-Aug-27 00:31N 35°28' E 139°42'0 0.0
2014-Aug-26 23:31N 35°28' E 139°42'4 4.6
2014-Aug-26 22:33N 35°24' E 139°44'0 0.0
2014-Aug-26 21:33N 35°24' E 139°44'0 0.0
2014-Aug-26 20:33N 35°24' E 139°44'0 0.0
2014-Aug-26 19:33N 35°24' E 139°44'0 0.0
2014-Aug-26 18:33N 35°24' E 139°44'0 0.0
2014-Aug-26 17:33N 35°24' E 139°44'0 0.0
2014-Aug-26 16:33N 35°24' E 139°44'0 0.0
2014-Aug-26 15:33N 35°24' E 139°44'0 0.0
2014-Aug-26 14:33N 35°24' E 139°44'0 0.0
2014-Aug-26 13:33N 35°24' E 139°44'0 0.0
2014-Aug-26 12:30N 35°24' E 139°44'0 0.0
2014-Aug-26 11:33N 35°24' E 139°44'0 0.0
2014-Aug-26 10:33N 35°24' E 139°44'0 0.0
2014-Aug-26 09:33N 35°24' E 139°44'0 0.0
2014-Aug-26 08:30N 35°24' E 139°44'2 1.8
2014-Aug-26 07:33N 35°25' E 139°43'2 2.2
2014-Aug-26 06:33N 35°26' E 139°41'0 0.3
2014-Aug-26 05:31N 35°26' E 139°41'0 0.0
2014-Aug-26 04:31N 35°26' E 139°41'0 0.0
2014-Aug-26 03:31N 35°26' E 139°41'2 2.5
2014-Aug-26 02:33N 35°24' E 139°41'0 0.1
2014-Aug-26 01:32N 35°24' E 139°41'2 2.1
2014-Aug-26 00:33N 35°22' E 139°42'1010.3
2014-Aug-25 23:33N 35°13' E 139°47'1110.8
2014-Aug-25 22:33N 35°03' E 139°41'1512.8
2014-Aug-25 21:21N 34°54' E 139°26'14 0.5
2014-Aug-24 16:12N 34°48' E 139°11'1911.4
2014-Aug-24 14:33N 34°59' E 139°30'1212.0
2014-Aug-24 13:33N 35°06' E 139°42'1211.5
2014-Aug-24 12:33N 35°17' E 139°45'8 7.6
2014-Aug-24 11:31N 35°24' E 139°41'0 0.0
2014-Aug-24 10:31N 35°24' E 139°41'8 8.6
2014-Aug-24 09:33N 35°17' E 139°46'1212.2
2014-Aug-24 08:33N 35°05' E 139°44'1312.7
2014-Aug-24 07:33N 34°57' E 139°32'1713.9
2014-Aug-24 06:22N 34°47' E 139°16'1212.5
2014-Aug-24 05:26N 34°40' E 139°04'201 7.7
2014-Aug-23 03:20N 34°22' E 135°01'911.9
2014-Aug-23 02:33N 34°28' E 135°09'1211.6
2014-Aug-23 01:33N 34°38' E 135°17'3 3.1
2014-Aug-23 00:29N 34°41' E 135°17'3 2.9
2014-Aug-22 23:33N 34°40' E 135°14'0 0.1
2014-Aug-22 22:30N 34°40' E 135°14'0 0.0
2014-Aug-22 21:24N 34°40' E 135°14'0 0.0
2014-Aug-22 20:30N 34°40' E 135°14'0 0.0
2014-Aug-22 19:30N 34°40' E 135°14'0 0.0
2014-Aug-22 18:30N 34°40' E 135°14'0 0.0
2014-Aug-22 17:30N 34°40' E 135°14'0 0.0
2014-Aug-22 16:30N 34°40' E 135°14'0 0.0
2014-Aug-22 15:30N 34°40' E 135°14'0 0.0
2014-Aug-22 14:30N 34°40' E 135°14'0 0.0
2014-Aug-22 13:30N 34°40' E 135°14'0 0.0
2014-Aug-22 12:30N 34°40' E 135°14'0 0.0
2014-Aug-22 11:30N 34°40' E 135°14'0 0.0
2014-Aug-22 10:30N 34°40' E 135°14'0 0.0
2014-Aug-22 09:24N 34°40' E 135°14'0 0.0
2014-Aug-22 08:30N 34°40' E 135°14'0 0.0
2014-Aug-22 07:30N 34°40' E 135°14'4 3.8
2014-Aug-22 06:34N 34°41' E 135°18'3 3.3
2014-Aug-22 05:33N 34°40' E 135°14'0 0.3
2014-Aug-22 04:30N 34°40' E 135°14'4 3.7
2014-Aug-22 03:33N 34°41' E 135°18'0 0.2
2014-Aug-22 01:22N 34°41' E 135°17'0 0.0
2014-Aug-22 00:16N 34°41' E 135°17'0 0.0
2014-Aug-21 23:32N 34°41' E 135°17'3 2.5
2014-Aug-21 22:28N 34°39' E 135°19'0 0.0
2014-Aug-21 21:28N 34°39' E 135°19'  

Dump ship's entire track history